Lapse_Rate
6.1 5.8 5.8 5.8 5.9 5.7 5.8 5.9 5.8 5.5 5.5 5.6 5.5 5.4 5.1 5.2 4.7 5.0 5.3 5.5 5.6 5.7 5.5 5.7 6.0 6.1 6.0 6.1 6.0 6.0 6.1 6.0 6.1 6.0 6.1 6.0 5.9 6.0 6.1 6.0 5.9 5.8 5.7
6.2 6.0 5.9 5.9 5.8 5.6 5.6 5.6 5.8 5.8 5.5 5.5 5.5 5.6 5.7 5.7 5.0 5.0 4.9 5.2 5.5 5.5 5.5 5.4 5.8 6.0 6.0 6.0 6.0 5.9 6.1 6.0 6.0 5.9 6.0 6.0 6.0 5.9 5.9 5.9 5.8 5.8 5.7
6.0 6.3 6.1 5.9 5.9 5.8 5.7 5.6 5.7 5.9 5.9 5.8 5.4 5.6 5.6 5.4 5.5 4.9 5.0 4.8 5.1 5.4 5.3 5.4 5.4 5.7 6.0 5.9 6.0 5.9 5.9 6.0 5.9 5.9 5.9 5.9 5.8 5.9 5.8 5.7 5.6 5.6 5.6
6.1 6.2 6.3 6.3 6.2 5.9 5.6 5.5 5.8 5.8 6.0 6.0 6.0 5.3 5.1 5.5 4.9 5.4 5.1 5.1 5.0 4.9 5.1 5.3 5.4 5.5 6.0 5.9 6.0 5.9 5.9 5.8 5.8 5.7 5.7 5.7 5.7 5.7 5.6 5.4 5.3 5.1 5.4
6.2 6.2 6.2 6.3 6.3 6.2 5.9 5.6 5.8 5.9 6.2 6.1 6.1 5.2 5.3 5.1 5.8 5.4 5.6 5.1 5.0 5.0 5.0 5.0 5.1 5.3 5.5 5.8 5.8 5.9 5.9 5.7 5.7 5.6 5.6 5.6 5.5 5.4 5.3 5.3 5.2 5.3 5.3
6.1 6.1 6.1 6.2 6.2 6.2 6.2 6.1 5.7 5.8 6.0 6.3 5.9 5.5 5.2 5.8 5.9 5.1 5.3 5.2 5.2 4.7 5.0 5.0 5.0 5.2 5.5 5.4 5.5 5.5 5.6 5.6 5.7 5.6 5.5 5.5 5.4 5.4 5.3 5.3 5.2 5.3 5.3
6.3 6.3 6.1 6.1 6.2 6.0 6.1 6.1 6.0 5.7 6.0 5.6 5.7 5.6 5.5 5.1 5.3 5.1 4.9 5.0 5.1 4.7 5.1 4.7 5.0 5.2 5.2 5.1 5.3 5.2 5.3 5.5 5.5 5.6 5.6 5.7 5.7 5.5 5.4 5.2 5.3 5.6 5.7
6.1 6.3 6.2 6.0 6.1 6.0 6.0 6.0 6.0 5.9 5.8 5.7 5.3 5.4 5.2 5.5 5.1 5.0 4.8 5.0 5.1 5.0 4.9 4.7 4.9 5.2 5.1 5.0 5.3 5.1 5.0 4.6 5.1 5.3 5.5 5.5 5.6 5.5 5.2 5.6 5.6 5.6 5.6
6.0 5.8 5.7 5.6 5.8 6.3 5.9 5.7 5.7 5.9 6.0 6.2 5.9 5.0 5.1 5.3 5.5 4.7 5.0 5.0 5.0 4.6 4.5 5.1 4.9 5.0 5.0 5.0 5.0 5.1 5.0 5.0 5.0 5.2 5.4 5.3 5.2 5.1 5.1 5.4 5.4 5.6 5.4
6.1 5.9 5.7 5.6 5.5 5.9 5.8 5.7 5.4 5.5 5.8 5.8 6.0 5.7 5.3 5.5 5.4 5.4 5.2 5.2 5.2 4.7 4.9 5.0 5.1 5.1 5.4 5.2 5.1 5.2 5.0 5.0 5.6 5.2 5.1 5.3 5.2 5.0 5.2 5.4 5.2 5.4 5.3
6.0 5.9 5.7 5.6 5.6 5.7 5.6 5.7 5.4 5.3 5.2 5.2 5.4 5.6 5.8 5.6 5.4 5.5 5.5 5.2 5.3 5.1 5.0 5.3 4.9 5.0 5.1 5.3 5.2 5.1 5.3 5.4 5.4 5.0 4.9 4.7 4.7 5.0 5.0 5.2 5.2 5.4 5.5
5.9 5.6 5.6 5.4 5.7 5.4 5.1 5.3 5.6 5.6 5.4 5.5 5.5 5.4 5.2 5.7 5.6 5.3 5.5 5.3 4.9 5.1 5.2 5.0 5.0 4.6 4.6 4.8 5.1 5.3 4.9 5.0 4.9 4.8 4.9 4.6 4.5 4.6 4.9 5.1 5.1 5.1 5.4
5.6 5.4 5.5 5.4 5.4 5.0 5.2 5.3 5.0 5.3 5.8 5.4 5.4 5.4 5.2 5.5 5.5 5.4 5.1 5.2 5.2 5.1 5.2 5.3 4.8 4.7 4.9 4.6 4.4 4.6 4.5 4.7 4.5 4.6 4.5 4.7 4.8 4.8 4.8 4.9 5.0 5.1 5.0
5.7 5.9 6.0 6.0 5.7 4.7 4.9 5.1 5.3 5.1 5.2 5.1 5.3 5.4 5.4 5.5 5.6 5.4 5.4 5.4 5.3 5.2 5.4 5.5 5.4 5.3 4.8 4.7 4.5 4.5 4.6 4.6 4.6 4.7 4.7 4.8 4.9 4.8 4.9 4.9 5.2 5.1 5.0
5.4 5.7 5.7 5.6 5.4 5.1 4.4 5.4 5.5 5.2 5.2 5.2 5.1 5.2 5.3 5.2 5.2 5.6 5.5 5.5 5.3 5.3 5.5 5.6 5.4 5.6 5.5 5.2 5.0 4.7 4.7 4.7 4.8 4.7 4.8 4.9 5.2 4.9 5.1 4.9 5.1 5.0 5.0
5.4 5.3 5.2 5.3 5.6 5.5 5.1 5.1 5.1 5.2 5.3 5.0 5.1 5.1 5.3 5.3 5.2 5.2 5.2 5.5 5.3 5.3 5.6 5.5 5.6 5.5 5.2 5.3 5.1 4.8 5.0 4.9 4.9 5.0 5.0 5.1 5.2 5.0 5.0 4.9 4.9 5.1 5.2
5.4 5.2 5.1 5.0 5.3 5.2 5.3 5.4 5.2 5.5 5.6 5.1 5.2 4.9 5.2 5.2 5.3 5.3 5.3 5.5 5.4 5.0 5.3 5.5 5.7 5.4 5.2 4.8 5.1 5.2 5.1 5.1 5.0 5.1 5.0 5.1 5.1 5.1 5.2 5.1 4.9 5.2 4.9
5.3 5.2 5.1 4.8 5.1 5.3 5.2 5.4 5.3 5.1 5.4 5.2 5.1 5.0 5.0 5.2 5.3 5.2 5.2 5.2 5.1 4.9 5.1 5.3 5.4 5.7 5.7 5.5 5.2 5.0 5.1 5.2 5.1 5.2 5.1 5.3 4.9 5.2 5.2 5.3 5.0 5.0 5.2
5.0 5.0 5.2 5.1 5.1 5.1 5.0 5.0 5.3 5.2 5.0 4.8 4.9 5.2 5.3 5.1 5.2 5.2 4.9 5.0 4.8 4.8 4.7 5.1 5.0 5.2 5.5 5.3 5.4 5.4 5.4 5.4 5.1 5.1 5.0 5.0 5.0 4.8 4.8 5.0 5.2 5.1 5.1
5.1 5.1 5.1 5.2 5.4 5.3 5.4 5.2 5.2 5.3 5.3 5.3 5.0 5.1 5.3 5.1 4.8 4.9 4.8 5.0 5.3 4.9 5.0 5.0 5.0 5.3 5.4 5.2 5.0 5.0 5.0 4.8 4.6 4.8 4.8 4.9 4.6 4.4 4.8 5.0 4.9 4.9 5.1
4.8 5.0 5.0 5.0 5.1 5.2 5.4 5.4 5.2 4.9 5.2 5.4 5.4 5.3 5.3 5.1 5.1 4.8 4.8 4.9 5.1 5.1 5.1 5.0 5.0 5.2 5.0 5.0 5.0 5.0 4.9 4.6 4.5 4.5 4.7 4.9 4.4 4.3 4.4 5.0 5.1 5.2 5.1
4.2 4.3 4.4 4.6 4.8 5.0 5.2 5.1 5.1 5.3 5.3 5.2 5.5 5.4 5.2 5.2 5.0 5.3 5.2 4.8 4.9 5.1 4.9 4.7 4.8 4.9 4.8 4.8 4.7 4.8 4.6 4.5 4.5 4.3 4.3 4.3 4.5 4.4 4.3 4.2 4.3 4.2 4.4
3.7 3.9 4.0 4.2 4.4 4.7 4.8 4.8 4.9 4.9 5.0 5.1 5.0 4.9 5.0 5.0 4.9 4.8 4.7 4.5 4.7 5.0 5.1 5.0 5.1 5.0 4.8 5.0 5.0 4.7 4.5 4.5 4.6 4.4 4.3 4.3 4.2 4.3 4.3 4.3 4.2 4.4 4.6
3.3 3.5 3.6 3.7 3.9 4.1 4.4 4.5 4.5 4.5 4.6 4.6 4.5 4.5 4.6 4.5 4.6 4.7 4.7 4.5 4.5 4.7 4.7 4.7 4.7 4.8 4.9 4.8 4.9 4.8 4.8 4.5 4.4 4.5 4.5 4.4 4.3 4.2 4.2 4.2 4.0 4.1 4.1
3.3 3.3 3.6 3.8 3.9 4.0 4.2 4.3 4.3 4.3 4.4 4.5 4.5 4.6 4.6 4.5 4.5 4.5 4.2 4.3 4.3 4.4 4.3 4.3 4.3 4.3 4.4 4.4 4.6 4.5 4.4 4.3 4.3 4.3 4.2 4.1 4.1 4.1 4.0 4.0 4.0 3.9 3.8
2.8 3.0 3.1 3.2 3.4 3.8 3.9 4.1 4.2 4.3 4.3 4.3 4.4 4.7 5.0 4.9 4.8 4.7 4.7 4.6 4.5 4.4 4.4 4.3 4.2 4.2 4.1 4.1 4.1 4.2 4.1 4.1 4.0 4.1 4.0 4.0 4.2 4.2 4.2 4.1 4.0 3.8 3.7
Wind_Speed
8 7 6 5 7 10 10 7 7 7 10 14 17 19 18 15 10 3 6 22 22 24 26 24 25 25 25 23 23 21 21 20 21 20 20 21 22 21 21 21 21 21 21
7 7 7 5 5 9 9 9 8 8 6 7 10 15 16 17 13 9 5 4 7 24 25 25 25 25 26 25 24 23 22 22 21 22 21 21 22 22 22 23 22 22 20
7 8 6 6 5 7 9 7 6 5 6 6 9 9 14 16 12 12 8 4 3 10 26 26 26 26 27 27 27 26 24 24 23 24 24 24 24 23 22 21 21 20 18
12 8 6 6 7 6 6 6 5 4 2 7 5 5 4 9 9 9 8 4 3 7 20 26 26 27 27 28 29 29 28 25 24 25 26 25 23 21 25 20 22 22 25
11 7 7 6 10 6 5 6 4 5 4 3 6 5 6 4 4 5 6 4 2 7 11 23 27 28 29 29 31 31 31 28 25 24 26 25 23 25 29 26 26 26 24
4 7 5 8 7 6 6 8 8 5 3 5 6 7 6 4 4 4 3 2 2 4 11 18 23 24 31 28 30 31 31 30 25 25 27 26 27 26 27 25 24 24 23
4 4 5 7 7 8 8 9 7 7 3 3 5 5 4 5 7 4 3 1 2 4 8 12 20 21 20 33 32 31 31 32 29 28 30 30 27 27 26 22 22 23 24
7 4 3 5 8 7 9 9 8 4 2 2 2 2 2 3 3 4 3 2 2 4 7 12 16 21 19 19 26 33 31 34 37 35 32 31 28 26 23 22 20 19 21
8 6 3 4 4 5 7 9 9 9 4 1 1 2 2 2 2 1 2 1 2 1 4 5 5 14 18 18 19 21 34 37 38 38 34 30 26 23 21 19 17 18 18
8 7 5 1 5 5 5 6 6 7 8 5 2 2 4 4 3 2 1 2 1 2 4 4 6 13 15 18 17 27 34 33 33 30 28 26 24 20 18 18 15 15 15
8 8 5 6 4 5 7 5 5 7 7 5 3 2 2 3 2 2 3 2 1 2 2 4 7 10 2 19 18 25 32 23 27 27 26 24 21 20 17 17 15 13 13
5 8 7 6 5 4 5 8 6 4 5 6 4 4 3 3 3 2 2 2 1 1 1 3 5 8 11 12 16 28 32 28 25 25 24 21 19 18 18 17 16 14 15
3 6 5 7 5 5 5 3 6 9 6 8 6 5 4 3 2 2 3 2 2 2 2 3 4 9 12 13 20 29 29 27 26 25 25 24 23 23 22 21 20 17 15
5 6 6 6 8 5 6 5 4 5 7 6 9 5 5 4 2 2 2 3 2 1 1 2 3 7 11 14 7 28 28 30 27 26 28 29 27 26 25 24 22 20 17
6 6 7 8 8 8 6 7 5 6 8 5 5 7 7 3 3 2 1 4 3 3 2 3 2 8 10 12 19 8 16 16 24 29 30 30 27 26 27 25 25 23 20
9 8 9 9 8 8 8 6 7 7 8 5 5 7 6 4 4 3 3 3 3 3 3 0 3 4 11 9 19 14 12 16 16 17 21 28 29 28 25 24 25 23 22
11 11 10 10 9 9 9 8 10 9 10 8 6 7 7 6 4 3 3 4 3 1 4 2 1 4 5 6 11 16 19 14 5 18 18 28 28 26 26 26 23 22 20
11 11 11 11 10 11 11 9 10 10 10 10 7 9 8 4 6 6 5 6 4 3 2 5 1 2 4 4 5 10 13 16 15 8 22 25 27 29 27 25 23 21 19
12 12 12 12 11 10 11 10 11 12 11 10 9 9 8 7 6 6 5 5 4 4 3 4 2 1 3 2 4 6 6 10 16 21 17 15 17 21 25 24 21 18 16
12 12 10 12 11 10 10 10 11 11 11 10 9 10 9 8 8 7 6 5 6 6 5 5 5 4 3 3 3 2 3 4 5 12 17 20 16 10 13 15 16 17 13
12 12 12 9 10 9 8 11 12 11 11 11 12 9 8 12 16 11 6 6 5 7 6 5 4 3 2 2 3 1 3 1 3 6 3 9 12 11 9 7 9 9 10
13 13 13 12 12 8 20 19 13 11 11 11 11 12 11 14 15 18 18 16 11 7 7 5 4 3 4 3 2 2 2 1 2 5 2 2 4 3 3 2 5 7 9
11 12 12 12 11 11 19 18 17 10 11 11 10 10 9 8 13 11 18 20 20 19 14 7 7 5 3 3 2 3 2 2 2 1 2 2 1 1 2 1 5 6 10
9 9 10 11 11 9 16 17 17 10 9 11 10 9 9 10 10 10 11 11 12 12 11 9 8 6 6 6 6 3 3 5 4 4 2 1 2 2 3 6 9 11 11
7 8 8 10 10 9 14 13 10 8 10 10 10 11 12 11 16 14 9 10 10 8 13 15 14 12 10 9 8 5 4 3 2 1 0 1 2 1 3 7 11 15 15
6 5 7 7 11 9 12 12 9 6 7 7 9 10 16 12 17 16 8 9 9 8 6 7 7 10 11 9 6 5 3 3 2 1 3 2 2 1 2 6 9 14 18
Wind_Direction
182 183 188 184 185 190 184 173 172 169 170 172 173 176 182 193 176 171 216 195 194 188 174 180 177 170 168 169 168 162 162 155 150 146 141 135 135 138 140 137 134 129 127
180 177 174 179 180 184 187 177 173 166 165 166 168 174 176 166 172 166 184 232 258 197 180 181 183 178 175 173 172 171 164 162 160 150 145 144 144 149 146 144 143 138 134
186 180 175 172 167 175 174 167 158 149 153 159 171 182 170 160 153 149 174 202 265 228 192 182 185 187 180 179 178 175 170 167 163 157 159 156 160 158 152 148 144 139 138
190 178 168 175 162 156 154 147 136 104 140 160 128 138 154 123 134 140 144 173 212 275 205 193 190 191 187 185 183 178 174 171 170 171 168 168 160 154 158 144 154 137 124
179 169 186 171 166 158 156 138 116 116 103 79 102 80 69 70 87 102 111 134 216 238 248 212 195 196 194 193 187 181 176 172 178 171 175 165 153 146 142 139 134 134 129
166 162 163 166 151 146 143 137 121 91 103 122 100 80 61 55 60 58 68 108 249 255 254 224 207 203 201 194 197 188 180 176 177 166 168 159 150 145 140 141 138 136 137
27 139 157 158 154 157 151 135 114 124 116 186 98 68 71 58 58 37 11 29 32 300 268 250 216 211 207 198 200 197 186 180 178 167 159 154 150 143 140 140 145 144 137
3 56 120 163 164 147 146 150 145 126 90 168 103 106 88 41 59 23 10 10 21 308 276 240 238 206 204 205 203 201 192 185 176 167 155 149 145 147 148 144 147 145 144
18 32 54 100 112 154 163 168 161 148 141 178 93 116 114 175 128 35 15 321 62 347 316 309 257 225 200 197 204 212 209 181 175 164 155 147 150 154 154 152 158 155 150
38 37 23 44 109 100 125 159 169 166 146 152 98 60 50 124 170 145 272 280 46 39 345 326 348 225 189 200 197 206 178 175 158 150 145 149 150 153 155 157 165 166 162
37 45 32 59 78 131 120 111 138 167 163 145 135 149 86 72 37 129 158 172 53 26 8 327 3 350 274 139 138 138 140 146 143 149 150 151 157 162 167 164 160 160 162
36 19 54 53 66 110 146 123 128 96 116 117 126 130 149 150 171 142 125 108 122 37 12 24 19 356 341 155 152 155 144 149 150 149 150 159 165 168 161 159 156 160 162
20 14 31 65 53 74 63 119 130 120 142 122 127 122 121 113 127 135 97 120 116 24 13 41 30 10 352 325 165 156 156 150 157 161 162 163 163 164 158 159 159 160 162
24 6 32 49 68 58 78 65 71 95 121 119 133 123 113 117 148 127 121 139 112 95 20 28 29 22 3 327 113 158 158 160 161 165 172 170 167 163 160 164 158 163 172
38 28 40 49 45 65 66 91 87 84 74 99 110 127 119 101 85 75 147 121 110 147 124 34 6 16 356 350 23 99 145 167 175 173 179 168 167 163 162 164 160 167 164
38 44 43 53 49 58 55 81 85 70 84 69 77 89 89 80 68 84 97 84 115 122 109 22 27 27 19 8 27 40 60 167 185 180 176 163 158 159 164 164 159 163 164
37 41 46 48 54 53 67 63 80 83 88 75 66 81 71 68 81 57 62 55 68 13 117 97 93 31 38 26 24 29 41 38 159 192 183 161 158 161 163 158 152 147 155
35 40 48 51 47 55 58 71 79 72 75 76 69 79 73 70 69 63 62 65 53 353 103 120 163 89 73 41 42 52 32 35 30 133 162 158 155 152 139 137 137 141 146
37 37 51 53 49 52 63 62 71 76 72 66 69 69 68 71 60 67 75 81 65 44 39 117 119 125 88 57 51 56 34 39 43 55 68 104 128 135 136 134 136 138 138
35 31 41 58 50 53 61 65 71 76 77 75 66 68 62 70 80 72 71 75 82 75 56 77 72 72 71 49 70 81 78 38 42 51 57 68 70 91 118 132 135 141 148
34 31 32 65 75 62 61 62 64 69 72 72 60 59 76 86 81 81 79 62 65 88 80 76 77 84 58 51 76 56 73 70 59 43 49 43 58 60 73 117 128 140 149
29 31 29 27 57 67 73 72 67 70 66 62 69 69 63 53 74 84 82 77 68 68 75 76 65 72 85 80 70 71 87 75 113 20 54 70 56 45 43 65 187 188 187
29 29 30 30 36 61 71 74 71 70 75 73 72 74 67 59 60 60 66 68 67 69 69 68 80 55 70 56 81 91 83 79 77 70 62 127 92 119 154 228 267 254 216
38 36 32 35 40 55 64 71 71 67 70 72 73 71 90 83 75 72 74 73 68 66 65 73 80 79 79 77 65 68 78 83 84 96 112 150 137 244 250 244 236 236 235
44 45 37 37 38 34 64 70 74 78 76 69 73 68 79 83 80 80 79 82 77 62 63 76 80 77 86 94 99 105 96 110 82 83 148 29 144 221 228 242 240 246 242
43 42 47 36 30 32 71 65 68 82 81 76 64 56 76 92 82 75 79 86 84 73 75 75 63 57 53 73 88 70 118 132 113 143 147 198 125 156 271 245 229 227 231